Wind_Speed
3 4 4 3 3 6 9 6 12 21 21 22 19 19 23 21 22 23 24 27 24 25 25 25 24 24 23 22 22 23 22 22 22 22 22 22 22 22 21 21 21 20 20 19 19 19 18 18 19
4 4 5 4 5 11 9 9 24 24 22 12 12 20 24 20 21 21 23 26 25 25 24 23 22 21 21 21 22 22 22 22 22 23 23 23 23 24 24 24 23 23 22 21 21 22 22 22 23
5 5 5 6 9 8 4 18 26 21 16 10 20 24 20 18 20 20 21 24 24 22 21 19 19 19 20 21 21 21 21 22 23 24 25 25 25 25 26 26 26 26 26 26 26 26 27 27 28
6 7 9 10 10 6 11 18 20 20 16 16 21 22 16 17 18 19 20 20 19 17 17 17 18 19 20 19 20 20 22 23 24 26 27 27 28 27 28 29 29 30 31 31 31 32 33 33 33
9 11 14 15 2 10 15 15 13 14 16 15 15 20 18 17 17 17 16 15 15 14 15 15 17 18 18 19 19 19 21 22 24 26 28 29 30 30 31 31 32 33 33 34 34 34 35 37 37
11 14 20 8 8 10 7 9 8 9 11 12 14 18 18 18 17 15 14 13 13 15 16 15 16 16 17 18 18 18 18 19 21 24 25 26 28 29 29 31 33 33 32 32 31 31 31 30 33
4 12 14 1 10 6 6 6 6 6 9 9 12 21 19 17 15 15 14 14 14 15 16 15 15 16 18 19 20 21 20 20 21 23 25 26 27 27 27 28 29 31 31 31 30 29 29 31 31
6 12 14 2 7 7 8 5 7 8 11 13 17 21 19 17 16 16 17 17 16 17 15 14 14 16 18 19 20 21 22 23 24 25 27 27 28 29 29 29 28 29 29 29 30 30 30 30 31
10 16 11 3 7 8 8 5 8 10 10 16 22 22 19 18 17 18 20 19 18 16 16 15 14 16 17 18 20 21 23 24 25 27 27 28 29 29 29 28 28 28 28 29 29 29 29 29 30
8 12 2 12 7 5 7 7 10 11 9 13 18 21 21 18 16 19 21 21 16 16 18 15 15 17 18 20 21 23 24 26 27 28 29 29 28 28 28 27 27 27 28 29 30 30 31 31 32
9 4 12 16 15 10 8 9 11 8 13 15 18 19 22 19 20 23 21 20 19 20 22 22 21 22 21 22 24 25 26 28 30 31 31 32 31 30 29 29 29 29 30 31 32 33 34 35 35
10 10 13 13 13 12 8 10 12 10 14 16 19 25 27 28 27 27 25 24 23 25 26 25 24 25 26 26 26 28 29 30 32 33 34 34 34 34 33 32 31 31 31 32 33 33 35 36 37
14 12 14 15 13 11 11 12 13 12 13 16 20 28 34 30 28 28 26 24 26 27 28 27 26 27 28 29 28 30 31 32 33 34 35 35 36 36 36 36 35 35 35 35 35 36 37 38 40
17 15 15 18 15 13 14 13 14 15 15 16 22 26 29 28 27 28 26 26 28 28 28 27 26 27 27 27 28 29 32 34 35 37 38 39 38 38 37 36 36 37 39 40 41 42 42 43 43
20 19 19 18 15 14 15 13 11 14 18 18 22 24 27 27 26 28 29 28 29 30 30 27 23 24 25 27 28 30 33 35 37 40 42 43 42 40 38 37 38 39 41 44 46 48 49 49 50
20 20 18 14 14 15 17 15 7 13 17 18 20 20 26 28 28 30 32 31 31 31 27 21 18 21 26 28 31 33 35 37 39 41 43 44 44 41 39 40 41 43 45 48 50 51 52 52 53
20 18 15 13 14 17 20 17 11 18 20 21 19 18 25 27 28 30 30 32 32 32 22 17 24 24 27 29 31 31 33 35 39 41 43 44 44 43 43 44 45 47 49 52 53 53 54 55 56
17 13 14 17 13 19 24 23 18 20 23 22 18 17 26 30 30 29 30 33 34 35 34 41 39 36 36 36 35 35 35 37 39 42 44 45 45 46 48 48 49 51 52 53 54 55 57 59 62
18 17 17 14 16 22 25 24 21 23 25 22 18 22 30 31 29 28 34 37 40 43 46 47 45 45 45 44 43 41 41 42 43 44 45 46 48 50 49 50 51 52 54 56 58 60 62 65 66
21 23 22 22 21 26 28 24 24 27 26 24 24 28 31 33 33 34 37 38 41 43 46 48 50 51 50 49 48 48 48 49 49 50 49 49 51 51 51 53 55 57 58 60 63 66 67 68 70
26 26 23 20 18 25 29 24 27 30 26 24 25 27 31 34 36 34 35 37 39 42 45 48 50 52 53 52 52 52 53 54 54 55 54 53 52 53 56 59 61 62 64 65 67 70 72 73 74
28 23 22 22 21 22 26 20 27 33 31 27 26 27 29 31 34 35 35 37 39 42 44 46 48 50 51 53 54 55 55 56 56 57 57 58 60 63 66 68 69 70 71 72 73 75 78 80 81
25 21 20 22 25 25 24 22 27 35 36 32 28 27 29 32 34 35 37 38 40 42 43 45 47 48 49 51 52 53 53 55 56 58 60 63 66 70 73 75 77 77 78 79 80 82 83 85 86
23 22 24 25 24 26 24 24 29 38 38 32 29 29 33 36 37 37 37 39 40 41 42 43 44 45 45 46 48 50 52 55 58 61 64 67 70 74 77 80 82 83 85 86 86 86 86 85 82
25 24 26 26 25 25 21 24 31 41 41 36 34 36 38 40 39 38 37 38 38 39 39 40 40 42 43 45 48 51 54 57 60 63 67 71 75 78 82 84 86 87 88 87 85 82 77 70 62
27 26 26 23 21 19 20 28 38 39 38 38 37 38 40 39 37 37 36 37 38 38 38 39 40 43 45 48 50 53 56 59 63 67 71 75 78 80 82 83 83 82 78 74 68 61 54 48 45
24 25 23 24 25 25 25 29 32 35 35 37 38 39 40 37 36 38 38 39 39 39 40 41 43 45 48 50 53 55 58 62 67 69 71 72 72 70 68 65 61 58 53 48 44 41 40 39 39
24 23 23 26 28 30 28 30 36 36 37 38 39 41 40 38 39 42 42 42 41 41 42 43 45 47 49 52 54 57 62 65 66 64 62 59 54 49 45 43 40 38 37 36 36 36 36 36 37
28 28 29 30 28 29 30 32 38 37 35 36 39 40 39 40 43 46 45 44 43 44 45 46 47 49 51 53 56 60 63 62 57 54 50 46 42 39 37 36 35 34 33 33 33 34 35 34 34
34 31 28 31 33 31 29 34 40 40 41 42 41 41 41 43 47 48 47 46 46 46 47 48 49 51 53 55 59 61 58 51 47 44 42 40 38 37 36 36 35 34 34 34 34 33 32 30 30
Wind_Direction
195 199 197 186 119 65 55 42 238 243 251 245 234 254 264 262 268 278 285 292 295 293 290 284 281 280 282 279 272 265 259 255 254 256 256 257 256 254 252 252 251 251 252 253 254 255 255 254 252
162 186 197 180 114 54 12 239 242 253 268 266 256 274 275 278 280 285 288 292 294 292 286 280 276 276 279 280 276 269 262 256 254 256 257 256 255 254 253 254 254 253 252 254 255 256 255 253 251
152 170 165 150 104 40 185 233 251 268 274 286 284 285 287 286 288 290 292 293 293 289 281 276 272 273 278 280 279 273 267 260 256 256 257 256 254 254 255 256 256 256 256 256 257 257 257 255 253
135 143 126 110 71 291 224 229 254 273 276 276 285 286 293 296 296 296 296 293 290 286 281 278 275 277 280 281 279 273 267 263 260 257 257 257 255 255 257 258 258 258 259 260 260 259 258 256 254
125 130 97 61 58 243 249 252 270 281 287 299 293 289 302 306 301 299 295 291 292 293 290 286 281 281 282 282 281 279 273 267 266 263 262 262 259 256 257 260 263 263 264 265 265 264 264 261 259
137 121 66 30 256 255 249 247 260 285 302 319 309 303 307 310 307 302 296 295 300 299 294 290 286 283 279 281 285 286 283 279 278 274 274 274 272 271 269 271 274 277 276 276 277 276 277 277 275
161 99 74 14 254 251 237 240 229 256 282 289 297 301 310 312 315 312 307 305 305 299 295 294 293 291 289 288 289 292 293 293 292 289 290 290 290 290 291 291 291 291 291 290 290 290 290 289 285
88 100 103 224 257 242 258 261 248 249 269 277 281 291 302 310 317 315 308 304 300 298 295 298 297 299 300 297 294 296 297 297 296 294 294 294 295 295 295 297 299 298 297 295 294 294 292 291 289
101 93 87 210 242 229 264 285 273 280 281 294 300 305 305 305 309 308 305 300 296 298 292 299 294 296 299 300 299 299 298 296 295 294 294 295 296 297 298 299 300 299 298 296 295 294 294 292 291
138 82 165 206 212 238 251 259 273 300 289 286 286 299 303 298 303 303 304 298 291 297 302 300 300 295 295 296 297 298 298 297 297 297 298 299 301 302 301 300 298 297 296 295 294 294 293 292 291
189 172 223 220 222 214 246 263 269 277 276 274 273 281 292 297 307 300 297 296 294 298 301 301 299 295 292 290 291 292 293 294 296 299 301 302 302 301 300 299 297 297 296 295 295 294 293 291 290
235 226 232 218 228 216 219 261 265 261 273 280 282 281 282 286 293 296 298 296 293 296 295 294 293 292 292 291 291 292 293 293 293 293 294 295 296 297 298 298 299 298 297 296 294 292 290 290 290
257 246 254 249 246 242 233 236 257 261 266 276 276 284 290 288 287 291 295 296 295 293 290 290 291 291 293 294 295 295 294 294 293 291 290 290 291 293 295 297 298 299 298 296 294 292 290 289 288
247 251 255 263 260 256 259 244 242 264 261 269 278 284 288 290 291 294 296 299 296 291 288 289 292 293 296 298 299 298 297 296 295 293 291 289 289 290 291 293 294 295 294 294 293 292 292 291 290
246 248 252 257 267 269 272 271 247 259 268 264 272 284 288 293 294 294 300 300 291 288 284 284 290 294 298 300 301 300 299 300 299 298 295 292 289 287 287 288 290 291 292 294 295 295 294 294 294
255 260 261 268 275 271 268 271 252 261 270 270 275 279 284 290 295 296 299 297 283 280 269 271 289 298 301 302 301 299 298 299 299 298 298 294 289 286 286 288 290 292 293 295 295 294 293 293 293
260 263 273 278 272 264 263 268 246 251 250 257 269 272 276 280 283 288 293 288 285 285 275 297 313 313 309 307 304 299 297 297 298 297 299 296 288 285 285 287 289 291 293 294 294 294 294 294 294
257 263 281 288 272 250 250 259 260 259 262 264 264 255 260 274 277 276 287 288 293 297 302 309 315 319 317 312 307 302 299 298 297 296 297 297 292 289 289 288 289 291 292 292 292 292 292 293 293
241 234 241 245 248 243 249 256 257 257 262 265 256 246 257 272 278 277 285 293 299 301 304 310 313 314 313 311 308 305 303 301 299 297 297 296 294 292 290 292 293 292 291 291 291 292 292 292 292
251 247 243 232 237 250 254 259 258 257 263 262 252 251 260 270 273 277 285 291 295 298 302 305 307 307 307 307 307 307 305 303 302 301 299 297 295 291 289 293 293 292 291 292 292 292 291 291 291
246 248 245 242 247 261 266 263 259 265 266 266 263 264 267 273 279 281 283 285 287 291 295 298 300 302 304 305 305 305 304 303 302 301 300 299 296 292 293 294 293 293 293 293 294 293 293 292 292
250 254 253 243 235 246 268 270 261 265 268 271 271 273 278 282 283 281 279 280 284 288 292 295 297 299 300 301 302 302 302 301 300 300 299 298 297 296 296 296 296 295 295 295 295 294 294 294 293
252 248 247 253 248 238 243 254 255 262 269 274 272 273 283 289 287 284 283 285 287 290 294 296 297 298 298 298 298 299 298 298 298 297 297 297 296 296 296 295 295 295 295 294 294 293 293 293 293
249 246 243 241 245 247 242 238 254 262 268 272 271 278 288 292 291 288 288 289 291 295 296 297 297 298 298 298 298 297 297 297 297 297 297 296 296 295 294 294 294 294 293 292 292 292 292 292 293
247 243 245 249 249 252 254 243 247 255 263 269 274 283 291 293 293 293 293 294 295 298 299 299 299 300 300 300 299 298 298 298 298 298 297 297 296 295 294 293 292 291 291 290 291 292 292 292 292
249 246 241 242 251 265 258 242 240 245 252 261 270 281 289 292 294 295 296 298 300 302 303 303 303 302 301 300 300 299 300 300 301 301 301 299 298 296 294 292 291 291 291 291 292 293 293 292 292
240 248 251 243 240 245 258 263 257 255 256 261 267 276 284 289 293 297 300 303 305 306 306 305 304 303 303 302 302 303 304 305 306 305 304 303 301 299 298 297 296 295 295 295 295 295 294 294 294
247 235 241 246 247 247 248 263 271 265 264 265 265 269 276 283 291 297 300 303 306 307 306 305 304 304 304 304 305 306 308 310 310 309 309 308 308 307 307 307 306 304 301 300 298 297 296 296 296
247 252 240 237 243 251 255 256 258 264 267 267 264 267 274 283 292 296 299 303 307 307 307 306 305 305 306 307 308 310 312 313 312 312 313 315 315 314 314 313 310 307 305 302 300 299 299 299 300
248 252 254 246 240 240 247 258 261 263 268 270 271 275 281 288 293 296 300 305 307 307 307 307 307 307 308 309 311 313 314 314 315 317 320 321 321 319 317 314 311 308 305 301 299 299 299 300 301
Height
5892 5894 5895 5898 5901 5903 5904 5908 5909 5900 5900 5901 5901 5902 5900 5901 5901 5901 5895 5892 5894 5893 5892 5891 5890 5890 5889 5889 5888 5888 5888 5889 5890 5891 5891 5892 5892 5893 5893 5893 5893 5892 5892 5892 5892 5892 5893 5893 5893
5892 5893 5895 5898 5901 5901 5908 5910 5899 5900 5899 5896 5897 5899 5897 5899 5898 5897 5894 5890 5890 5890 5888 5887 5886 5886 5885 5885 5885 5884 5884 5885 5886 5887 5888 5888 5889 5889 5889 5890 5890 5889 5889 5889 5889 5889 5889 5889 5889
5891 5893 5895 5898 5900 5902 5908 5903 5898 5899 5898 5896 5895 5894 5895 5895 5894 5893 5891 5888 5887 5886 5884 5883 5883 5883 5882 5882 5881 5881 5881 5882 5883 5884 5884 5885 5885 5885 5886 5886 5886 5886 5886 5885 5885 5885 5885 5884 5884
5891 5893 5896 5900 5901 5906 5902 5899 5898 5897 5896 5897 5894 5889 5890 5891 5890 5890 5888 5886 5884 5883 5881 5880 5880 5880 5880 5879 5878 5878 5878 5878 5879 5880 5880 5881 5881 5881 5882 5882 5882 5882 5881 5881 5880 5880 5879 5878 5878
5892 5895 5896 5899 5907 5905 5901 5900 5898 5896 5894 5895 5891 5887 5888 5888 5888 5887 5885 5884 5882 5881 5879 5879 5878 5878 5877 5876 5876 5875 5875 5875 5875 5876 5876 5877 5877 5877 5877 5877 5877 5876 5875 5875 5874 5873 5872 5871 5871
5894 5893 5896 5904 5907 5903 5901 5900 5898 5897 5894 5893 5889 5887 5886 5886 5886 5885 5883 5882 5882 5880 5878 5877 5876 5875 5875 5874 5873 5873 5873 5873 5873 5873 5872 5872 5872 5872 5872 5871 5871 5870 5869 5868 5867 5866 5865 5864 5864
5895 5893 5899 5908 5906 5904 5902 5899 5898 5897 5895 5893 5890 5884 5885 5885 5885 5884 5882 5881 5880 5877 5875 5874 5874 5873 5872 5872 5871 5871 5870 5870 5870 5869 5869 5868 5868 5867 5867 5866 5866 5865 5864 5862 5861 5860 5859 5858 5858
5894 5895 5899 5908 5906 5904 5900 5899 5897 5896 5894 5892 5890 5885 5885 5885 5884 5883 5881 5879 5878 5876 5871 5872 5871 5871 5871 5870 5868 5868 5867 5866 5866 5865 5864 5864 5863 5862 5862 5861 5860 5860 5859 5858 5857 5855 5854 5853 5852
5895 5898 5900 5906 5904 5902 5900 5899 5897 5895 5894 5891 5886 5884 5884 5883 5883 5881 5879 5876 5873 5872 5868 5869 5870 5870 5868 5867 5865 5864 5864 5863 5862 5860 5860 5859 5859 5858 5857 5856 5856 5855 5854 5853 5852 5851 5849 5848 5847
5895 5895 5902 5902 5902 5901 5899 5898 5896 5896 5894 5891 5884 5881 5880 5880 5881 5880 5876 5871 5867 5867 5867 5865 5866 5867 5866 5864 5862 5861 5860 5858 5857 5856 5855 5854 5853 5853 5852 5851 5850 5849 5848 5847 5846 5845 5844 5842 5841
5893 5896 5897 5898 5899 5898 5898 5897 5896 5895 5892 5889 5883 5880 5879 5878 5877 5876 5874 5870 5865 5864 5865 5865 5864 5863 5862 5861 5859 5857 5857 5855 5853 5852 5850 5849 5848 5847 5847 5845 5844 5844 5843 5841 5840 5839 5837 5836 5835
5891 5892 5893 5894 5894 5895 5896 5896 5894 5893 5890 5887 5882 5877 5878 5878 5876 5874 5872 5870 5868 5865 5863 5863 5862 5860 5858 5856 5855 5853 5853 5851 5850 5848 5846 5844 5843 5841 5840 5839 5838 5837 5836 5835 5833 5832 5831 5829 5828
5888 5889 5890 5889 5890 5890 5891 5892 5892 5892 5890 5886 5882 5877 5873 5875 5875 5873 5871 5868 5866 5864 5860 5860 5859 5857 5855 5853 5852 5850 5848 5847 5846 5844 5842 5840 5837 5835 5833 5831 5830 5829 5828 5827 5825 5823 5822 5821 5819
5885 5885 5887 5886 5885 5887 5887 5887 5888 5888 5887 5885 5881 5877 5873 5871 5871 5869 5868 5867 5863 5860 5857 5856 5856 5854 5852 5850 5848 5846 5845 5843 5841 5839 5836 5834 5832 5830 5828 5825 5823 5821 5819 5817 5816 5814 5812 5810 5809
5878 5879 5881 5881 5882 5883 5883 5883 5883 5885 5883 5882 5879 5875 5871 5868 5868 5865 5864 5862 5856 5852 5849 5849 5851 5850 5849 5847 5845 5843 5840 5838 5836 5833 5830 5828 5825 5823 5821 5819 5817 5814 5811 5809 5806 5803 5801 5798 5795
5873 5874 5876 5878 5878 5879 5881 5880 5881 5882 5880 5878 5876 5873 5868 5865 5864 5862 5858 5855 5847 5840 5834 5839 5846 5847 5845 5844 5841 5838 5836 5833 5830 5827 5824 5821 5818 5816 5813 5810 5808 5806 5803 5800 5796 5793 5790 5787 5783
5869 5871 5873 5875 5877 5878 5877 5876 5877 5876 5876 5874 5873 5871 5866 5862 5860 5857 5853 5848 5839 5831 5827 5831 5839 5840 5839 5838 5836 5833 5830 5827 5823 5820 5817 5813 5810 5807 5804 5801 5798 5796 5793 5789 5785 5781 5777 5774 5770
5866 5868 5871 5873 5875 5875 5874 5873 5872 5871 5870 5869 5869 5868 5861 5857 5856 5853 5850 5844 5839 5832 5828 5829 5829 5830 5831 5831 5829 5826 5823 5819 5816 5812 5809 5805 5801 5798 5795 5791 5789 5786 5782 5778 5773 5769 5766 5762 5757
5862 5864 5867 5872 5873 5870 5867 5867 5867 5866 5864 5864 5864 5862 5855 5854 5853 5851 5847 5843 5838 5834 5829 5824 5821 5822 5822 5822 5820 5817 5814 5810 5806 5804 5801 5796 5792 5788 5784 5781 5778 5774 5770 5766 5761 5756 5753 5748 5743
5858 5860 5862 5864 5865 5863 5861 5860 5860 5858 5858 5858 5857 5855 5851 5849 5849 5848 5845 5842 5837 5831 5826 5822 5819 5817 5815 5812 5809 5806 5802 5799 5796 5793 5790 5786 5782 5778 5773 5770 5766 5762 5758 5753 5747 5742 5737 5733 5728
5851 5853 5855 5857 5860 5857 5855 5855 5853 5850 5851 5851 5851 5849 5847 5845 5843 5844 5843 5840 5835 5831 5827 5823 5818 5814 5809 5805 5801 5797 5793 5789 5785 5782 5778 5774 5769 5764 5760 5756 5752 5747 5743 5738 5733 5726 5720 5715 5712
5844 5846 5848 5850 5852 5853 5851 5850 5847 5841 5842 5844 5844 5842 5841 5840 5838 5838 5836 5834 5831 5827 5824 5820 5815 5810 5805 5800 5795 5790 5785 5780 5776 5771 5767 5763 5757 5751 5745 5739 5734 5730 5725 5720 5715 5709 5702 5695 5691
5838 5841 5843 5844 5844 5846 5848 5847 5842 5834 5832 5835 5836 5834 5834 5833 5832 5830 5828 5826 5824 5821 5818 5814 5809 5804 5799 5794 5789 5783 5778 5772 5767 5762 5756 5751 5744 5737 5729 5722 5716 5711 5706 5700 5694 5689 5683 5676 5669
5832 5835 5836 5836 5838 5838 5840 5842 5838 5825 5824 5828 5828 5828 5827 5826 5824 5822 5820 5818 5816 5813 5810 5806 5801 5796 5791 5786 5781 5775 5769 5763 5758 5752 5745 5738 5731 5722 5713 5705 5698 5692 5685 5679 5673 5667 5661 5655 5648
5827 5829 5830 5830 5831 5832 5835 5836 5833 5820 5820 5822 5823 5822 5821 5819 5817 5815 5813 5811 5808 5805 5801 5797 5792 5787 5782 5777 5772 5766 5760 5753 5747 5739 5732 5723 5715 5706 5696 5687 5679 5672 5664 5658 5652 5646 5641 5635 5629
5819 5822 5824 5826 5828 5829 5828 5827 5818 5817 5816 5817 5818 5817 5815 5813 5811 5809 5806 5803 5800 5797 5792 5788 5783 5778 5773 5768 5762 5755 5749 5742 5734 5725 5715 5705 5695 5685 5676 5666 5658 5650 5643 5637 5632 5628 5623 5620 5616
5814 5815 5818 5820 5821 5822 5821 5814 5813 5813 5812 5813 5813 5811 5809 5807 5805 5802 5799 5796 5792 5788 5784 5779 5774 5768 5763 5757 5751 5744 5737 5728 5719 5708 5697 5686 5675 5665 5656 5647 5639 5632 5626 5622 5618 5615 5612 5608 5605
5807 5810 5813 5813 5813 5814 5817 5813 5807 5807 5807 5807 5805 5803 5802 5801 5798 5795 5791 5788 5784 5780 5775 5770 5765 5759 5753 5746 5739 5731 5723 5713 5703 5692 5681 5670 5659 5650 5642 5635 5628 5622 5617 5613 5609 5606 5602 5599 5595
5801 5802 5803 5805 5807 5808 5809 5809 5800 5800 5800 5798 5795 5794 5794 5793 5790 5787 5783 5780 5776 5771 5766 5760 5755 5748 5742 5734 5726 5718 5709 5699 5689 5679 5669 5659 5650 5642 5635 5628 5622 5616 5611 5606 5602 5598 5594 5590 5586
5793 5795 5796 5797 5798 5800 5802 5800 5792 5794 5793 5791 5788 5788 5787 5785 5781 5778 5774 5771 5766 5761 5755 5750 5744 5737 5730 5722 5714 5706 5696 5687 5678 5670 5661 5652 5644 5636 5629 5622 5616 5610 5605 5600 5595 5590 5586 5582 5579